Total_Precipitation_Accumulation
0.73 0.50 0.55 0.51 0.45 0.41 0.40 0.47 0.55 0.52 0.52 0.54 0.57 0.61 0.56 0.56 0.54 0.55 0.64 0.74 0.89 1.07 1.20 1.32 1.49 1.67 1.76 1.96 1.84 1.55 1.50 1.62 1.77 2.11 2.65 2.95 3.01 2.97 2.99 2.99 2.91 2.55 2.52
0.55 0.44 0.51 0.49 0.48 0.46 0.47 0.53 0.50 0.45 0.47 0.49 0.50 0.60 0.60 0.59 0.58 0.60 0.63 0.77 0.98 1.21 1.27 1.34 1.44 1.73 1.79 1.85 1.87 1.62 1.51 1.63 1.75 2.16 2.81 3.37 3.52 3.41 3.28 3.29 3.00 2.78 2.58
0.45 0.44 0.49 0.54 0.52 0.52 0.49 0.53 0.48 0.45 0.50 0.55 0.53 0.60 0.67 0.62 0.61 0.60 0.68 0.83 1.11 1.29 1.32 1.40 1.57 1.73 1.85 1.80 1.79 1.63 1.62 1.76 1.88 2.33 3.11 3.32 3.48 3.70 3.70 3.48 2.97 2.70 2.37
0.40 0.45 0.47 0.61 0.63 0.58 0.53 0.54 0.54 0.51 0.52 0.59 0.65 0.66 0.73 0.67 0.66 0.70 0.77 0.87 1.14 1.34 1.52 1.55 1.60 1.79 1.88 1.74 1.55 1.66 1.83 1.96 2.17 2.59 3.03 3.03 2.99 3.54 3.49 3.25 2.81 2.61 2.33
0.47 0.50 0.53 0.61 0.68 0.73 0.71 0.69 0.69 0.65 0.64 0.67 0.74 0.79 0.88 0.83 0.76 0.79 0.85 0.93 1.13 1.27 1.55 1.79 1.79 1.80 1.75 1.60 1.54 1.76 2.11 2.13 2.42 2.65 2.89 3.22 3.34 3.56 3.25 3.07 2.67 2.55 2.44
0.59 0.63 0.57 0.77 0.88 0.93 0.90 0.84 0.83 0.79 0.78 0.82 0.86 0.86 0.92 0.92 0.90 0.96 1.01 1.07 1.26 1.38 1.50 1.77 2.01 2.06 1.90 1.95 1.80 1.93 2.32 2.37 2.36 2.43 2.90 3.48 3.50 3.54 3.26 3.05 2.70 2.63 2.47
0.88 0.86 0.72 0.79 0.82 0.91 0.92 0.95 0.91 0.88 0.85 0.93 0.96 0.93 0.94 0.91 0.93 1.09 1.25 1.29 1.41 1.50 1.54 1.64 1.83 2.01 2.02 2.26 2.26 2.21 2.57 2.63 2.38 2.52 2.94 3.27 3.30 3.40 3.33 3.25 2.89 2.61 2.41
1.05 1.00 0.79 0.81 0.81 0.95 1.01 1.03 0.99 0.97 0.98 1.05 1.10 1.06 1.02 0.99 1.04 1.20 1.39 1.50 1.55 1.51 1.52 1.66 1.75 1.98 2.29 2.46 2.55 2.50 2.57 2.63 2.30 2.47 2.87 3.07 2.93 3.06 3.37 3.31 3.00 2.66 2.41
1.10 1.14 0.98 1.00 0.99 1.05 1.13 1.15 1.23 1.16 1.16 1.19 1.19 1.28 1.19 1.16 1.28 1.40 1.48 1.58 1.60 1.58 1.49 1.50 1.67 1.74 2.11 2.31 2.43 2.46 2.47 2.68 2.47 2.47 2.59 3.12 2.92 3.14 3.45 3.26 2.96 2.70 2.46
1.80 1.86 1.63 1.49 1.44 1.36 1.30 1.23 1.34 1.32 1.34 1.43 1.37 1.38 1.40 1.39 1.44 1.56 1.56 1.65 1.61 1.53 1.52 1.50 1.64 1.70 1.83 1.89 1.86 2.02 2.15 2.27 2.30 2.34 2.71 2.91 3.02 3.58 3.81 3.52 3.20 2.95 2.71
2.58 2.66 2.27 1.85 1.70 1.90 1.75 1.41 1.58 1.50 1.46 1.50 1.49 1.50 1.58 1.84 2.02 2.06 1.83 2.00 1.96 1.81 1.72 1.71 1.71 1.70 1.70 1.78 1.81 1.89 1.86 1.61 2.06 2.54 2.71 2.99 3.08 3.61 4.00 3.70 3.43 3.21 2.89
2.89 2.89 2.57 2.07 2.19 2.44 2.13 2.05 2.00 1.79 1.71 1.64 1.77 1.78 1.93 2.46 2.65 2.31 2.40 2.36 2.36 2.25 2.15 2.14 2.09 1.92 1.73 1.62 1.80 1.87 1.55 1.43 1.88 2.50 2.82 3.18 3.48 3.80 3.87 3.62 3.54 3.52 3.20
2.98 2.70 2.36 2.29 2.37 2.63 2.64 2.54 2.45 2.43 2.43 2.44 2.48 2.48 2.67 2.79 2.66 2.53 2.82 2.68 2.63 2.54 2.47 2.53 2.35 2.01 1.91 1.92 1.89 1.82 1.64 1.64 1.96 2.26 2.72 3.19 3.52 3.87 4.08 3.74 3.57 3.69 3.53
2.92 2.85 2.79 2.83 2.71 2.94 3.34 3.35 3.15 3.08 3.02 2.95 2.89 2.75 3.09 3.24 3.12 3.11 3.19 3.13 3.28 3.27 3.23 2.88 2.64 2.40 2.28 2.05 1.85 1.81 1.88 1.92 2.07 2.43 2.88 3.07 3.35 3.66 4.01 4.06 3.92 3.84 3.71
3.21 3.13 3.11 3.21 3.21 3.33 3.80 4.04 3.76 3.63 3.46 3.34 3.24 3.24 3.31 3.31 3.33 3.46 3.40 3.60 3.59 3.50 3.34 3.10 2.69 2.65 2.47 2.31 2.14 1.98 2.09 2.25 2.32 2.62 2.83 2.99 3.13 3.38 3.92 4.41 4.38 4.24 4.01
3.50 3.30 3.25 3.32 3.31 3.41 3.67 3.92 3.98 3.93 4.00 3.89 3.60 3.54 3.58 3.56 3.63 3.65 3.65 3.62 3.47 3.30 3.36 3.30 3.07 2.99 2.78 2.61 2.42 2.37 2.37 2.37 2.48 2.57 2.76 3.02 2.86 2.97 3.57 4.22 4.61 4.54 4.44
3.80 3.76 3.61 3.61 3.74 3.68 3.72 3.79 3.77 3.83 4.12 4.16 4.11 4.06 3.85 3.75 3.77 3.78 3.80 3.68 3.52 3.45 3.52 3.45 3.36 3.26 3.09 2.95 2.85 2.72 2.68 2.57 2.52 2.59 2.82 3.04 3.01 3.05 3.31 3.74 4.23 4.50 4.61
4.24 4.19 3.82 3.49 3.79 3.88 3.93 3.95 3.98 4.02 4.24 4.25 4.16 4.29 4.07 4.10 3.99 3.89 3.69 3.50 3.46 3.44 3.66 3.70 3.60 3.61 3.46 3.32 3.29 2.97 2.88 2.87 2.66 2.76 2.84 2.94 3.27 3.35 3.45 3.48 3.72 4.15 4.52
4.75 4.52 4.00 3.74 3.83 4.00 4.00 4.14 4.35 4.53 4.53 4.40 4.25 4.34 4.22 4.25 4.18 4.09 4.05 3.96 3.81 3.87 3.88 3.57 3.67 3.77 3.80 3.72 3.36 3.19 3.03 2.94 2.83 2.73 2.72 2.75 3.06 3.35 3.44 3.49 3.62 3.80 4.15
4.85 4.74 4.31 4.13 4.37 4.37 4.28 4.31 4.44 4.58 4.61 4.71 4.71 4.66 4.53 4.48 4.56 4.75 4.72 4.57 4.36 4.25 4.21 4.27 4.25 3.98 3.80 3.79 3.46 3.35 3.20 2.92 2.80 2.76 2.61 2.63 2.83 2.83 2.97 3.10 3.41 3.49 3.68
4.09 4.18 4.36 4.41 4.49 4.54 4.57 4.58 4.74 4.91 4.92 4.91 5.03 5.05 4.93 4.87 5.01 5.37 5.40 5.24 4.88 4.59 4.43 4.44 4.45 4.23 3.93 3.77 3.84 3.67 3.29 2.93 2.83 2.72 2.69 2.67 2.54 2.57 2.78 2.98 3.09 3.10 3.18
3.91 4.10 4.35 4.37 4.53 4.82 5.24 5.75 6.02 6.15 6.00 5.81 5.70 5.63 5.49 5.40 5.51 5.61 5.73 5.39 5.01 4.82 4.56 4.34 4.32 4.18 3.90 3.84 3.93 4.02 3.59 3.30 2.77 2.38 2.48 2.49 2.49 2.54 2.59 2.60 2.71 2.84 2.87
3.52 3.88 4.15 4.48 4.86 5.38 6.07 6.88 7.23 7.00 6.55 6.32 6.02 5.94 5.68 5.46 5.44 5.59 5.35 5.11 4.90 4.68 4.47 4.29 4.32 4.29 3.93 3.79 3.91 4.17 3.85 3.46 3.06 2.69 2.42 2.33 2.44 2.50 2.53 2.58 2.52 2.64 2.70
3.13 3.62 4.10 4.64 5.21 5.90 6.55 7.01 7.24 7.15 6.89 6.58 6.10 5.70 5.31 4.98 4.79 4.73 4.63 4.40 4.30 4.17 4.03 3.83 3.89 4.00 3.92 3.65 3.59 3.42 3.36 3.24 3.19 2.90 2.61 2.41 2.40 2.45 2.49 2.43 2.43 2.56 2.65
3.04 3.53 4.05 4.56 5.25 5.75 6.29 6.70 6.99 7.03 6.93 6.56 5.83 5.18 4.75 4.37 4.12 3.85 3.65 3.60 3.58 3.54 3.36 3.19 3.23 3.28 3.26 3.23 3.21 3.06 3.05 3.02 2.94 2.82 2.70 2.62 2.55 2.39 2.34 2.35 2.38 2.45 2.55
2.98 3.51 3.91 4.26 4.98 5.66 6.17 6.53 6.82 6.83 6.66 6.03 5.29 4.73 4.31 3.96 3.71 3.44 3.28 3.17 3.16 3.07 2.90 2.77 2.75 2.75 2.78 2.82 2.93 2.94 2.87 2.79 2.73 2.77 2.59 2.50 2.50 2.35 2.29 2.26 2.26 2.37 2.49